Time,TemperatureF,DewpointF,PressureIn,WindDirection,WindDirectionDegrees,WindSpeedMPH,WindSpeedGustMPH,Humidity,HourlyPrecipIn,Conditions,Clouds,dailyrainin,SoftwareType,DateUTC
2013-04-08 00:02:00,30.1,24.9,30.02,SE,135,0.4,0.9,81,0.00,,,0.00,WUHU216HW,2013-04-07 22:02:00,
2013-04-08 00:07:00,29.9,24.8,30.02,SE,135,0.9,0.9,81,0.00,,,0.00,WUHU216HW,2013-04-07 22:07:00,
2013-04-08 00:12:00,29.9,24.8,30.02,SE,135,0.4,1.8,81,0.00,,,0.00,WUHU216HW,2013-04-07 22:12:00,
2013-04-08 00:17:00,29.9,24.8,30.02,SE,135,0.4,1.8,81,0.00,,,0.00,WUHU216HW,2013-04-07 22:17:00,
2013-04-08 00:22:00,29.9,24.8,30.01,SE,135,0.4,0.7,81,0.00,,,0.00,WUHU216HW,2013-04-07 22:22:00,
2013-04-08 00:27:00,29.7,24.6,30.01,SSW,203,0.4,0.7,81,0.00,,,0.00,WUHU216HW,2013-04-07 22:27:00,
2013-04-08 00:32:00,29.7,24.8,30.01,SW,225,0.2,0.9,82,0.00,,,0.00,WUHU216HW,2013-04-07 22:32:00,
2013-04-08 00:37:00,29.7,24.8,30.01,SE,135,0.7,0.9,82,0.00,,,0.00,WUHU216HW,2013-04-07 22:37:00,
2013-04-08 00:43:00,29.5,24.7,30.01,SE,135,0.7,1.1,82,0.00,,,0.00,WUHU216HW,2013-04-07 22:43:00,
2013-04-08 00:48:00,29.5,24.7,30.01,SE,135,0.9,1.1,82,0.00,,,0.00,WUHU216HW,2013-04-07 22:48:00,
2013-04-08 00:53:00,29.3,24.5,30.01,SE,135,0.7,1.1,82,0.00,,,0.00,WUHU216HW,2013-04-07 22:53:00,
2013-04-08 00:58:00,29.2,24.3,30.01,SSE,158,0.9,1.1,82,0.00,,,0.00,WUHU216HW,2013-04-07 22:58:00,
2013-04-08 01:03:00,29.2,24.3,30.01,SSE,158,0.7,1.1,82,0.00,,,0.00,WUHU216HW,2013-04-07 23:03:00,
2013-04-08 01:08:00,29.2,24.3,30.00,SE,135,0.7,1.1,82,0.00,,,0.00,WUHU216HW,2013-04-07 23:08:00,
2013-04-08 01:13:00,29.2,24.3,30.00,SE,135,0.7,1.1,82,0.00,,,0.00,WUHU216HW,2013-04-07 23:13:00,
2013-04-08 01:18:00,29.2,24.3,30.00,SSE,158,0.4,0.7,82,0.00,,,0.00,WUHU216HW,2013-04-07 23:18:00,
2013-04-08 01:23:00,29.0,24.1,30.00,SSE,158,0.0,1.1,82,0.00,,,0.00,WUHU216HW,2013-04-07 23:23:00,
2013-04-08 01:28:00,29.0,24.1,30.00,SSE,158,0.4,1.1,82,0.00,,,0.00,WUHU216HW,2013-04-07 23:28:00,
2013-04-08 01:33:00,28.8,23.9,30.00,SSE,158,0.0,0.7,82,0.00,,,0.00,WUHU216HW,2013-04-07 23:33:00,
2013-04-08 01:38:00,28.8,24.3,30.00,SSE,158,0.0,0.4,83,0.00,,,0.00,WUHU216HW,2013-04-07 23:38:00,
2013-04-08 01:43:00,28.8,24.3,30.00,South,180,0.0,0.2,83,0.00,,,0.00,WUHU216HW,2013-04-07 23:43:00,
2013-04-08 01:48:00,28.6,24.1,30.00,South,180,0.0,0.0,83,0.00,,,0.00,WUHU216HW,2013-04-07 23:48:00,
2013-04-08 01:53:00,28.6,24.1,30.00,SSE,158,0.4,0.4,83,0.00,,,0.00,WUHU216HW,2013-04-07 23:53:00,
2013-04-08 01:58:00,28.4,24.0,29.99,SSE,158,0.4,0.4,83,0.00,,,0.00,WUHU216HW,2013-04-07 23:58:00,
2013-04-08 02:03:00,28.3,23.8,29.99,SSE,158,0.0,0.4,83,0.00,,,0.00,WUHU216HW,2013-04-08 00:03:00,
2013-04-08 02:08:00,28.3,23.8,29.99,SSE,158,0.0,0.4,83,0.00,,,0.00,WUHU216HW,2013-04-08 00:08:00,
2013-04-08 02:13:00,28.1,23.6,29.99,SSE,158,0.4,0.7,83,0.00,,,0.00,WUHU216HW,2013-04-08 00:13:00,
2013-04-08 02:18:00,28.1,23.6,29.99,SSW,203,0.0,0.7,83,0.00,,,0.00,WUHU216HW,2013-04-08 00:18:00,
2013-04-08 02:23:00,27.9,23.4,29.99,SSW,203,0.2,0.4,83,0.00,,,0.00,WUHU216HW,2013-04-08 00:23:00,
2013-04-08 02:28:00,27.9,23.4,29.99,SSW,203,0.0,0.4,83,0.00,,,0.00,WUHU216HW,2013-04-08 00:28:00,
2013-04-08 02:33:00,27.9,23.4,29.99,SSW,203,0.0,0.2,83,0.00,,,0.00,WUHU216HW,2013-04-08 00:33:00,
2013-04-08 02:38:00,27.9,23.4,29.98,SSW,203,0.0,0.0,83,0.00,,,0.00,WUHU216HW,2013-04-08 00:38:00,
2013-04-08 02:43:00,27.7,23.2,29.98,SSW,203,0.0,0.0,83,0.00,,,0.00,WUHU216HW,2013-04-08 00:43:00,
2013-04-08 02:48:00,27.7,23.5,29.98,SSW,203,0.0,0.0,84,0.00,,,0.00,WUHU216HW,2013-04-08 00:48:00,
2013-04-08 02:53:00,27.7,23.5,29.98,ESE,113,0.4,0.7,84,0.00,,,0.00,WUHU216HW,2013-04-08 00:53:00,
2013-04-08 02:58:00,27.7,23.5,29.98,ESE,113,0.0,0.7,84,0.00,,,0.00,WUHU216HW,2013-04-08 00:58:00,
2013-04-08 03:03:00,27.5,23.3,29.98,SSE,158,0.0,0.4,84,0.00,,,0.00,WUHU216HW,2013-04-08 01:03:00,
2013-04-08 03:08:00,27.4,22.9,29.98,SSE,158,0.0,0.4,83,0.00,,,0.00,WUHU216HW,2013-04-08 01:08:00,
2013-04-08 03:13:00,27.4,22.9,29.98,SSE,158,0.0,0.2,83,0.00,,,0.00,WUHU216HW,2013-04-08 01:13:00,
2013-04-08 03:18:00,27.4,22.9,29.97,SW,225,0.4,0.4,83,0.00,,,0.00,WUHU216HW,2013-04-08 01:18:00,
2013-04-08 03:23:00,27.0,22.5,29.97,SW,225,0.0,0.4,83,0.00,,,0.00,WUHU216HW,2013-04-08 01:23:00,
2013-04-08 03:28:00,27.2,22.7,29.97,SW,225,0.0,0.4,83,0.00,,,0.00,WUHU216HW,2013-04-08 01:28:00,
2013-04-08 03:33:00,27.2,22.7,29.97,SW,225,0.0,0.4,83,0.00,,,0.00,WUHU216HW,2013-04-08 01:33:00,
2013-04-08 03:38:00,27.0,22.5,29.97,SE,135,0.4,0.7,83,0.00,,,0.00,WUHU216HW,2013-04-08 01:38:00,
2013-04-08 03:43:00,27.0,22.5,29.97,SE,135,0.4,0.7,83,0.00,,,0.00,WUHU216HW,2013-04-08 01:43:00,
2013-04-08 03:48:00,27.0,22.8,29.96,SE,135,0.0,0.7,84,0.00,,,0.00,WUHU216HW,2013-04-08 01:48:00,
2013-04-08 03:53:00,27.0,22.8,29.96,SE,135,0.0,0.7,84,0.00,,,0.00,WUHU216HW,2013-04-08 01:53:00,
2013-04-08 03:58:00,27.0,22.8,29.96,SW,225,0.0,0.0,84,0.00,,,0.00,WUHU216HW,2013-04-08 01:58:00,
2013-04-08 04:03:00,27.0,22.8,29.96,SW,225,0.0,0.7,84,0.00,,,0.00,WUHU216HW,2013-04-08 02:03:00,
2013-04-08 04:08:00,27.0,22.8,29.96,SW,225,0.0,0.7,84,0.00,,,0.00,WUHU216HW,2013-04-08 02:08:00,
2013-04-08 04:13:00,27.0,22.8,29.96,SW,225,0.0,0.0,84,0.00,,,0.00,WUHU216HW,2013-04-08 02:13:00,
2013-04-08 04:18:00,26.8,22.6,29.96,SW,225,0.0,0.0,84,0.00,,,0.00,WUHU216HW,2013-04-08 02:18:00,
2013-04-08 04:23:00,26.8,22.6,29.96,SW,225,0.0,0.0,84,0.00,,,0.00,WUHU216HW,2013-04-08 02:23:00,
2013-04-08 04:28:00,26.8,22.6,29.95,ESE,113,0.7,0.9,84,0.00,,,0.00,WUHU216HW,2013-04-08 02:28:00,
2013-04-08 04:33:00,26.6,22.4,29.95,ESE,113,0.0,0.9,84,0.00,,,0.00,WUHU216HW,2013-04-08 02:33:00,
2013-04-08 04:38:00,26.5,22.2,29.95,ESE,113,0.0,0.7,84,0.00,,,0.00,WUHU216HW,2013-04-08 02:38:00,
2013-04-08 04:44:00,26.3,22.1,29.94,SE,135,0.2,0.2,84,0.00,,,0.00,WUHU216HW,2013-04-08 02:44:00,
2013-04-08 04:49:00,26.3,22.1,29.95,SE,135,0.0,0.2,84,0.00,,,0.00,WUHU216HW,2013-04-08 02:49:00,
2013-04-08 04:54:00,26.3,22.1,29.94,South,180,0.0,0.2,84,0.00,,,0.00,WUHU216HW,2013-04-08 02:54:00,
2013-04-08 04:59:00,26.3,22.1,29.94,SSW,203,0.0,0.4,84,0.00,,,0.00,WUHU216HW,2013-04-08 02:59:00,
2013-04-08 05:04:00,26.3,22.3,29.94,SSW,203,0.0,0.4,85,0.00,,,0.00,WUHU216HW,2013-04-08 03:04:00,
2013-04-08 05:09:00,26.1,22.1,29.94,SSW,203,0.0,0.0,85,0.00,,,0.00,WUHU216HW,2013-04-08 03:09:00,
2013-04-08 05:14:00,26.1,22.1,29.94,SSW,203,0.0,0.0,85,0.00,,,0.00,WUHU216HW,2013-04-08 03:14:00,
2013-04-08 05:20:00,26.1,22.1,29.93,SSW,203,0.0,0.0,85,0.00,,,0.00,WUHU216HW,2013-04-08 03:20:00,
2013-04-08 05:25:00,26.1,22.1,29.93,SSW,203,0.0,0.2,85,0.00,,,0.00,WUHU216HW,2013-04-08 03:25:00,
2013-04-08 05:30:00,26.1,22.1,29.93,SSW,203,0.0,0.2,85,0.00,,,0.00,WUHU216HW,2013-04-08 03:30:00,
2013-04-08 05:35:00,26.1,22.1,29.93,SSW,203,0.0,0.0,85,0.00,,,0.00,WUHU216HW,2013-04-08 03:35:00,
2013-04-08 05:40:00,25.9,22.0,29.92,SSW,203,0.0,0.0,85,0.00,,,0.00,WUHU216HW,2013-04-08 03:40:00,
2013-04-08 05:45:00,25.9,22.0,29.92,SSW,203,0.0,0.0,85,0.00,,,0.00,WUHU216HW,2013-04-08 03:45:00,
2013-04-08 05:50:00,25.7,21.9,29.92,SSW,203,0.0,0.0,85,0.00,,,0.00,WUHU216HW,2013-04-08 03:50:00,
2013-04-08 05:55:00,25.7,21.9,29.92,SSW,203,0.0,0.0,85,0.00,,,0.00,WUHU216HW,2013-04-08 03:55:00,
2013-04-08 06:00:00,25.7,21.9,29.92,SSW,203,0.0,0.0,85,0.00,,,0.00,WUHU216HW,2013-04-08 04:00:00,
2013-04-08 06:05:00,25.6,21.7,29.91,SSE,158,0.7,0.7,85,0.00,,,0.00,WUHU216HW,2013-04-08 04:05:00,
2013-04-08 06:10:00,25.6,21.7,29.91,SSE,158,0.0,0.7,85,0.00,,,0.00,WUHU216HW,2013-04-08 04:10:00,
2013-04-08 06:15:00,25.6,21.7,29.91,SSE,158,0.0,0.7,85,0.00,,,0.00,WUHU216HW,2013-04-08 04:15:00,
2013-04-08 06:20:00,25.6,21.7,29.91,SSE,158,0.0,0.0,85,0.00,,,0.00,WUHU216HW,2013-04-08 04:20:00,
2013-04-08 06:25:00,25.4,21.5,29.91,SSE,158,0.0,0.0,85,0.00,,,0.00,WUHU216HW,2013-04-08 04:25:00,
2013-04-08 06:30:00,25.4,21.5,29.91,SSE,158,0.0,0.0,85,0.00,,,0.00,WUHU216HW,2013-04-08 04:30:00,
2013-04-08 06:35:00,25.4,21.5,29.91,SSE,158,0.0,0.0,85,0.00,,,0.00,WUHU216HW,2013-04-08 04:35:00,
2013-04-08 06:40:00,25.4,21.5,29.91,SSE,158,0.0,0.0,85,0.00,,,0.00,WUHU216HW,2013-04-08 04:40:00,
2013-04-08 06:45:00,25.4,21.5,29.91,SSE,158,0.0,0.0,85,0.00,,,0.00,WUHU216HW,2013-04-08 04:45:00,
2013-04-08 06:50:00,25.4,21.5,29.91,SSE,158,0.0,0.0,85,0.00,,,0.00,WUHU216HW,2013-04-08 04:50:00,
2013-04-08 06:55:00,25.4,21.5,29.91,SSE,158,0.0,0.0,85,0.00,,,0.00,WUHU216HW,2013-04-08 04:55:00,
2013-04-08 07:00:00,25.6,21.7,29.90,SSE,158,0.0,0.0,85,0.00,,,0.00,WUHU216HW,2013-04-08 05:00:00,
2013-04-08 07:05:00,25.4,21.5,29.91,SSE,158,0.0,0.0,85,0.00,,,0.00,WUHU216HW,2013-04-08 05:05:00,
2013-04-08 07:10:00,25.6,21.7,29.90,SSE,158,0.0,0.0,85,0.00,,,0.00,WUHU216HW,2013-04-08 05:10:00,
2013-04-08 07:15:00,25.6,21.7,29.90,SSE,158,0.0,0.0,85,0.00,,,0.00,WUHU216HW,2013-04-08 05:15:00,
2013-04-08 07:20:00,25.7,21.9,29.90,SW,225,0.2,0.4,85,0.00,,,0.00,WUHU216HW,2013-04-08 05:20:00,
2013-04-08 07:25:00,25.9,22.0,29.90,SW,225,0.0,0.4,85,0.00,,,0.00,WUHU216HW,2013-04-08 05:25:00,
2013-04-08 07:30:00,26.1,22.1,29.90,SW,225,0.0,0.2,85,0.00,,,0.00,WUHU216HW,2013-04-08 05:30:00,
2013-04-08 07:35:00,26.3,22.3,29.90,SW,225,0.2,0.4,85,0.00,,,0.00,WUHU216HW,2013-04-08 05:35:00,
2013-04-08 07:40:00,26.5,22.5,29.90,SW,225,0.0,0.4,85,0.00,,,0.00,WUHU216HW,2013-04-08 05:40:00,
2013-04-08 07:45:00,26.6,22.7,29.90,SW,225,0.0,0.2,85,0.00,,,0.00,WUHU216HW,2013-04-08 05:45:00,
2013-04-08 07:50:00,26.8,22.9,29.89,SW,225,0.0,0.4,85,0.00,,,0.00,WUHU216HW,2013-04-08 05:50:00,
2013-04-08 07:55:00,27.0,23.0,29.90,WSW,248,0.4,0.4,85,0.00,,,0.00,WUHU216HW,2013-04-08 05:55:00,
2013-04-08 08:00:00,27.2,23.5,29.90,WSW,248,0.4,0.4,86,0.00,,,0.00,WUHU216HW,2013-04-08 06:00:00,
2013-04-08 08:05:00,27.4,23.7,29.89,SW,225,0.0,0.4,86,0.00,,,0.00,WUHU216HW,2013-04-08 06:05:00,
2013-04-08 08:10:00,27.5,23.9,29.89,SW,225,0.4,0.4,86,0.00,,,0.00,WUHU216HW,2013-04-08 06:10:00,
2013-04-08 08:15:00,27.7,24.0,29.89,WSW,248,0.0,0.4,86,0.00,,,0.00,WUHU216HW,2013-04-08 06:15:00,
2013-04-08 08:20:00,27.9,24.2,29.89,North,0,0.9,0.9,86,0.00,,,0.00,WUHU216HW,2013-04-08 06:20:00,
2013-04-08 08:25:00,28.3,24.8,29.89,NW,315,0.9,0.9,87,0.00,,,0.00,WUHU216HW,2013-04-08 06:25:00,
2013-04-08 08:30:00,28.4,25.0,29.89,North,0,0.9,1.1,87,0.00,,,0.00,WUHU216HW,2013-04-08 06:30:00,
2013-04-08 08:35:00,28.4,24.8,29.89,North,0,0.2,1.1,86,0.00,,,0.00,WUHU216HW,2013-04-08 06:35:00,
2013-04-08 08:40:00,28.8,25.4,29.89,North,0,0.2,0.9,87,0.00,,,0.00,WUHU216HW,2013-04-08 06:40:00,
2013-04-08 08:45:00,28.8,25.1,29.89,North,0,0.2,0.7,86,0.00,,,0.00,WUHU216HW,2013-04-08 06:45:00,
2013-04-08 08:50:00,29.2,25.7,29.89,NW,315,0.4,1.1,87,0.00,,,0.00,WUHU216HW,2013-04-08 06:50:00,
2013-04-08 08:56:00,29.3,25.7,29.89,North,0,0.4,1.1,86,0.00,,,0.00,WUHU216HW,2013-04-08 06:56:00,
2013-04-08 09:01:00,29.5,25.8,29.89,North,0,0.2,1.6,86,0.00,,,0.00,WUHU216HW,2013-04-08 07:01:00,
2013-04-08 09:06:00,29.9,26.5,29.88,North,0,0.9,1.8,87,0.00,,,0.00,WUHU216HW,2013-04-08 07:06:00,
2013-04-08 09:11:00,30.2,27.2,29.88,NE,45,1.6,3.1,88,0.00,,,0.00,WUHU216HW,2013-04-08 07:11:00,
2013-04-08 09:16:00,30.6,27.6,29.88,NNE,23,1.8,3.1,88,0.00,,,0.00,WUHU216HW,2013-04-08 07:16:00,
2013-04-08 09:21:00,31.0,27.9,29.87,NNE,23,1.3,2.9,88,0.00,,,0.00,WUHU216HW,2013-04-08 07:21:00,
2013-04-08 09:26:00,31.3,27.9,29.88,NNW,338,1.3,2.9,87,0.00,,,0.00,WUHU216HW,2013-04-08 07:26:00,
2013-04-08 09:31:00,31.9,28.4,29.88,North,0,2.0,2.5,87,0.00,,,0.00,WUHU216HW,2013-04-08 07:31:00,
2013-04-08 09:36:00,32.4,29.0,29.88,NW,315,1.8,2.5,87,0.00,,,0.00,WUHU216HW,2013-04-08 07:36:00,
2013-04-08 09:41:00,33.3,29.8,29.88,West,270,0.2,1.8,87,0.00,,,0.00,WUHU216HW,2013-04-08 07:41:00,
2013-04-08 09:46:00,33.8,30.0,29.88,North,0,0.4,1.8,86,0.00,,,0.00,WUHU216HW,2013-04-08 07:46:00,
2013-04-08 09:51:00,34.9,31.1,29.88,NW,315,1.1,1.3,86,0.00,,,0.00,WUHU216HW,2013-04-08 07:51:00,
2013-04-08 09:56:00,35.6,31.2,29.88,North,0,1.3,1.3,84,0.00,,,0.00,WUHU216HW,2013-04-08 07:56:00,
2013-04-08 10:01:00,36.4,32.2,29.88,WNW,293,2.7,2.7,85,0.00,,,0.00,WUHU216HW,2013-04-08 08:01:00,
2013-04-08 10:06:00,37.3,32.9,29.88,WNW,293,1.3,2.7,84,0.00,,,0.00,WUHU216HW,2013-04-08 08:06:00,
2013-04-08 10:12:00,38.2,33.5,29.87,North,0,0.9,2.0,83,0.00,,,0.00,WUHU216HW,2013-04-08 08:12:00,
2013-04-08 10:17:00,38.5,31.6,29.87,NNE,23,2.5,6.3,76,0.00,,,0.00,WUHU216HW,2013-04-08 08:17:00,
2013-04-08 10:22:00,38.9,31.2,29.87,WNW,293,1.1,6.3,74,0.00,,,0.00,WUHU216HW,2013-04-08 08:22:00,
2013-04-08 10:27:00,39.2,30.6,29.86,ESE,113,4.0,6.7,71,0.00,,,0.00,WUHU216HW,2013-04-08 08:27:00,
2013-04-08 10:32:00,39.8,28.9,29.86,SE,135,3.4,7.4,65,0.00,,,0.00,WUHU216HW,2013-04-08 08:32:00,
2013-04-08 10:37:00,40.0,27.5,29.86,SE,135,1.8,7.8,61,0.00,,,0.00,WUHU216HW,2013-04-08 08:37:00,
2013-04-08 10:42:00,40.5,26.4,29.86,ENE,68,5.4,7.8,57,0.00,,,0.00,WUHU216HW,2013-04-08 08:42:00,
2013-04-08 10:47:00,40.7,24.8,29.85,ESE,113,7.6,8.5,53,0.00,,,0.00,WUHU216HW,2013-04-08 08:47:00,
2013-04-08 10:52:00,40.7,24.8,29.85,SE,135,4.7,9.4,53,0.00,,,0.00,WUHU216HW,2013-04-08 08:52:00,
2013-04-08 10:57:00,41.0,25.1,29.85,SW,225,4.7,9.4,53,0.00,,,0.00,WUHU216HW,2013-04-08 08:57:00,
2013-04-08 11:02:00,41.4,25.9,29.86,South,180,1.3,8.9,54,0.00,,,0.00,WUHU216HW,2013-04-08 09:02:00,
2013-04-08 11:07:00,41.6,26.1,29.85,ESE,113,4.0,8.9,54,0.00,,,0.00,WUHU216HW,2013-04-08 09:07:00,
2013-04-08 11:12:00,42.1,26.7,29.85,ESE,113,7.6,7.6,54,0.00,,,0.00,WUHU216HW,2013-04-08 09:12:00,
2013-04-08 11:17:00,41.9,26.0,29.85,East,90,6.9,7.6,53,0.00,,,0.00,WUHU216HW,2013-04-08 09:17:00,
2013-04-08 11:22:00,42.1,27.0,29.85,NE,45,8.3,8.7,55,0.00,,,0.00,WUHU216HW,2013-04-08 09:22:00,
2013-04-08 11:27:00,42.3,25.5,29.85,SW,225,3.8,11.9,51,0.00,,,0.00,WUHU216HW,2013-04-08 09:27:00,
2013-04-08 11:32:00,42.8,26.8,29.85,East,90,5.1,11.9,53,0.00,,,0.00,WUHU216HW,2013-04-08 09:32:00,
2013-04-08 11:37:00,42.8,26.0,29.85,NNE,23,4.3,6.3,51,0.00,,,0.00,WUHU216HW,2013-04-08 09:37:00,
2013-04-08 11:42:00,42.7,25.8,29.84,ENE,68,6.7,9.4,51,0.00,,,0.00,WUHU216HW,2013-04-08 09:42:00,
2013-04-08 11:47:00,43.2,27.2,29.84,ESE,113,4.7,9.4,53,0.00,,,0.00,WUHU216HW,2013-04-08 09:47:00,
2013-04-08 11:52:00,43.6,27.6,29.84,SW,225,1.8,7.2,53,0.00,,,0.00,WUHU216HW,2013-04-08 09:52:00,
2013-04-08 11:57:00,44.3,27.7,29.84,SE,135,4.0,7.2,52,0.00,,,0.00,WUHU216HW,2013-04-08 09:57:00,
2013-04-08 12:02:00,44.8,26.3,29.84,SSE,158,2.7,8.3,48,0.00,,,0.00,WUHU216HW,2013-04-08 10:02:00,
2013-04-08 12:07:00,44.3,26.3,29.83,East,90,6.9,8.3,49,0.00,,,0.00,WUHU216HW,2013-04-08 10:07:00,
2013-04-08 12:12:00,44.1,26.7,29.83,SE,135,2.2,11.2,50,0.00,,,0.00,WUHU216HW,2013-04-08 10:12:00,
2013-04-08 12:17:00,44.5,27.5,29.83,East,90,3.6,11.2,51,0.00,,,0.00,WUHU216HW,2013-04-08 10:17:00,
2013-04-08 12:22:00,44.6,26.1,29.83,East,90,3.8,5.8,48,0.00,,,0.00,WUHU216HW,2013-04-08 10:22:00,
2013-04-08 12:27:00,44.3,26.3,29.83,ESE,113,6.9,7.6,49,0.00,,,0.00,WUHU216HW,2013-04-08 10:27:00,
2013-04-08 12:32:00,45.0,27.0,29.82,ESE,113,4.5,7.6,49,0.00,,,0.00,WUHU216HW,2013-04-08 10:32:00,
2013-04-08 12:37:00,45.9,26.7,29.83,SE,135,6.5,8.9,47,0.00,,,0.00,WUHU216HW,2013-04-08 10:37:00,
2013-04-08 12:42:00,46.4,26.1,29.82,SE,135,7.8,8.9,45,0.00,,,0.00,WUHU216HW,2013-04-08 10:42:00,
2013-04-08 12:47:00,46.3,27.0,29.82,SE,135,4.5,7.8,47,0.00,,,0.00,WUHU216HW,2013-04-08 10:47:00,
2013-04-08 12:52:00,46.3,26.5,29.81,SSE,158,4.3,6.5,46,0.00,,,0.00,WUHU216HW,2013-04-08 10:52:00,
2013-04-08 12:57:00,45.7,24.9,29.81,ESE,113,1.8,11.6,44,0.00,,,0.00,WUHU216HW,2013-04-08 10:57:00,
2013-04-08 13:02:00,45.4,25.7,29.81,SW,225,1.3,11.6,46,0.00,,,0.00,WUHU216HW,2013-04-08 11:02:00,
2013-04-08 13:07:00,46.1,26.3,29.81,South,180,3.8,9.8,46,0.00,,,0.00,WUHU216HW,2013-04-08 11:07:00,
2013-04-08 13:12:00,46.6,26.3,29.81,SW,225,6.3,10.1,45,0.00,,,0.00,WUHU216HW,2013-04-08 11:12:00,
2013-04-08 13:17:00,47.2,26.2,29.80,ENE,68,2.9,10.1,44,0.00,,,0.00,WUHU216HW,2013-04-08 11:17:00,
2013-04-08 13:22:00,47.2,25.7,29.80,ESE,113,9.8,9.8,43,0.00,,,0.00,WUHU216HW,2013-04-08 11:22:00,
2013-04-08 13:27:00,47.0,26.0,29.80,ESE,113,6.7,11.4,44,0.00,,,0.00,WUHU216HW,2013-04-08 11:27:00,
2013-04-08 13:32:00,47.0,26.6,29.79,North,0,3.8,11.4,45,0.00,,,0.00,WUHU216HW,2013-04-08 11:32:00,
2013-04-08 13:37:00,47.2,25.1,29.79,ESE,113,8.3,10.5,42,0.00,,,0.00,WUHU216HW,2013-04-08 11:37:00,
2013-04-08 13:42:00,46.8,25.4,29.79,NNW,338,1.8,10.5,43,0.00,,,0.00,WUHU216HW,2013-04-08 11:42:00,
2013-04-08 13:47:00,47.5,27.6,29.78,North,0,7.6,8.3,46,0.00,,,0.00,WUHU216HW,2013-04-08 11:47:00,
2013-04-08 13:52:00,47.7,26.7,29.78,NE,45,3.4,8.1,44,0.00,,,0.00,WUHU216HW,2013-04-08 11:52:00,
2013-04-08 13:57:00,47.9,27.4,29.78,East,90,2.7,8.1,45,0.00,,,0.00,WUHU216HW,2013-04-08 11:57:00,
2013-04-08 14:03:00,48.6,28.1,29.78,SE,135,1.1,4.9,45,0.00,,,0.00,WUHU216HW,2013-04-08 12:03:00,
2013-04-08 14:08:00,49.5,27.8,29.78,ENE,68,1.1,3.4,43,0.00,,,0.00,WUHU216HW,2013-04-08 12:08:00,
2013-04-08 14:13:00,49.3,27.1,29.77,SE,135,2.2,3.4,42,0.00,,,0.00,WUHU216HW,2013-04-08 12:13:00,
2013-04-08 14:18:00,49.7,29.1,29.77,WSW,248,4.3,5.4,45,0.00,,,0.00,WUHU216HW,2013-04-08 12:18:00,
2013-04-08 14:23:00,50.4,28.1,29.77,ENE,68,2.0,5.4,42,0.00,,,0.00,WUHU216HW,2013-04-08 12:23:00,
2013-04-08 14:28:00,50.2,27.9,29.77,ESE,113,6.7,7.4,42,0.00,,,0.00,WUHU216HW,2013-04-08 12:28:00,
2013-04-08 14:33:00,49.9,26.5,29.77,East,90,2.7,7.4,40,0.00,,,0.00,WUHU216HW,2013-04-08 12:33:00,
2013-04-08 14:38:00,49.3,26.6,29.77,ESE,113,2.2,9.2,41,0.00,,,0.00,WUHU216HW,2013-04-08 12:38:00,
2013-04-08 14:43:00,49.3,26.0,29.77,SE,135,8.9,9.2,40,0.00,,,0.00,WUHU216HW,2013-04-08 12:43:00,
2013-04-08 14:48:00,50.0,27.2,29.76,NE,45,2.0,8.9,41,0.00,,,0.00,WUHU216HW,2013-04-08 12:48:00,
2013-04-08 14:53:00,49.7,26.9,29.76,NNE,23,1.8,8.9,41,0.00,,,0.00,WUHU216HW,2013-04-08 12:53:00,
2013-04-08 14:58:00,49.5,26.7,29.76,ESE,113,4.0,4.9,41,0.00,,,0.00,WUHU216HW,2013-04-08 12:58:00,
2013-04-08 15:03:00,49.5,26.7,29.76,East,90,2.2,5.4,41,0.00,,,0.00,WUHU216HW,2013-04-08 13:03:00,
2013-04-08 15:08:00,49.3,27.1,29.76,NE,45,6.7,7.8,42,0.00,,,0.00,WUHU216HW,2013-04-08 13:08:00,
2013-04-08 15:13:00,49.3,27.1,29.76,SE,135,7.4,10.3,42,0.00,,,0.00,WUHU216HW,2013-04-08 13:13:00,
2013-04-08 15:18:00,49.3,27.1,29.76,ENE,68,2.9,10.3,42,0.00,,,0.00,WUHU216HW,2013-04-08 13:18:00,
2013-04-08 15:23:00,49.3,27.1,29.76,ESE,113,6.0,8.1,42,0.00,,,0.00,WUHU216HW,2013-04-08 13:23:00,
2013-04-08 15:28:00,49.1,26.9,29.76,ESE,113,2.5,8.1,42,0.00,,,0.00,WUHU216HW,2013-04-08 13:28:00,
2013-04-08 15:33:00,49.9,25.8,29.75,ESE,113,2.5,6.0,39,0.00,,,0.00,WUHU216HW,2013-04-08 13:33:00,
2013-04-08 15:38:00,50.0,27.2,29.75,SE,135,2.7,6.9,41,0.00,,,0.00,WUHU216HW,2013-04-08 13:38:00,
2013-04-08 15:43:00,50.2,27.4,29.75,ENE,68,2.5,6.9,41,0.00,,,0.00,WUHU216HW,2013-04-08 13:43:00,
2013-04-08 15:48:00,50.0,26.6,29.75,NNE,23,2.2,5.4,40,0.00,,,0.00,WUHU216HW,2013-04-08 13:48:00,
2013-04-08 15:53:00,49.7,26.9,29.75,NE,45,2.0,4.5,41,0.00,,,0.00,WUHU216HW,2013-04-08 13:53:00,
2013-04-08 15:58:00,49.7,27.5,29.75,NE,45,3.4,4.9,42,0.00,,,0.00,WUHU216HW,2013-04-08 13:58:00,
2013-04-08 16:03:00,49.7,26.3,29.75,ESE,113,2.7,4.9,40,0.00,,,0.00,WUHU216HW,2013-04-08 14:03:00,
2013-04-08 16:09:00,49.7,26.3,29.75,East,90,2.0,4.7,40,0.00,,,0.00,WUHU216HW,2013-04-08 14:09:00,
2013-04-08 16:14:00,49.7,27.5,29.74,South,180,2.2,3.8,42,0.00,,,0.00,WUHU216HW,2013-04-08 14:14:00,
2013-04-08 16:19:00,50.0,28.4,29.74,ENE,68,0.0,6.3,43,0.00,,,0.00,WUHU216HW,2013-04-08 14:19:00,
2013-04-08 16:25:00,50.2,27.9,29.74,North,0,0.7,6.3,42,0.00,,,0.00,WUHU216HW,2013-04-08 14:25:00,
2013-04-08 16:30:00,50.6,28.8,29.74,SE,135,5.1,6.9,43,0.00,,,0.00,WUHU216HW,2013-04-08 14:30:00,
2013-04-08 16:35:00,49.9,26.5,29.73,NE,45,10.1,10.1,40,0.00,,,0.00,WUHU216HW,2013-04-08 14:35:00,
2013-04-08 16:40:00,49.3,27.1,29.73,ESE,113,4.5,10.1,42,0.00,,,0.00,WUHU216HW,2013-04-08 14:40:00,
2013-04-08 16:45:00,49.0,26.7,29.73,NE,45,1.3,10.1,42,0.00,,,0.00,WUHU216HW,2013-04-08 14:45:00,
2013-04-08 16:50:00,49.0,27.3,29.73,NE,45,2.2,6.5,43,0.00,,,0.00,WUHU216HW,2013-04-08 14:50:00,
2013-04-08 16:55:00,49.0,26.2,29.73,ESE,113,4.5,5.4,41,0.00,,,0.00,WUHU216HW,2013-04-08 14:55:00,
2013-04-08 17:00:00,48.6,26.5,29.72,ESE,113,2.7,4.7,42,0.00,,,0.00,WUHU216HW,2013-04-08 15:00:00,
2013-04-08 17:05:00,48.8,26.7,29.72,NNE,23,2.5,4.7,42,0.00,,,0.00,WUHU216HW,2013-04-08 15:05:00,
2013-04-08 17:10:00,48.6,26.5,29.72,ESE,113,4.9,4.9,42,0.00,,,0.00,WUHU216HW,2013-04-08 15:10:00,
2013-04-08 17:15:00,48.6,27.0,29.72,NNE,23,5.8,6.0,43,0.00,,,0.00,WUHU216HW,2013-04-08 15:15:00,
2013-04-08 17:20:00,48.4,26.8,29.72,SE,135,3.8,6.0,43,0.00,,,0.00,WUHU216HW,2013-04-08 15:20:00,
2013-04-08 17:25:00,48.4,26.8,29.72,SE,135,2.0,7.6,43,0.00,,,0.00,WUHU216HW,2013-04-08 15:25:00,
2013-04-08 17:30:00,48.4,26.8,29.71,ESE,113,2.5,7.6,43,0.00,,,0.00,WUHU216HW,2013-04-08 15:30:00,
2013-04-08 17:35:00,48.2,26.6,29.71,ENE,68,7.6,8.1,43,0.00,,,0.00,WUHU216HW,2013-04-08 15:35:00,
2013-04-08 17:40:00,48.2,26.6,29.71,NE,45,4.7,8.1,43,0.00,,,0.00,WUHU216HW,2013-04-08 15:40:00,
2013-04-08 17:45:00,48.2,26.1,29.71,ENE,68,7.6,7.6,42,0.00,,,0.00,WUHU216HW,2013-04-08 15:45:00,
2013-04-08 17:51:00,48.4,26.8,29.71,ENE,68,8.5,8.5,43,0.00,,,0.00,WUHU216HW,2013-04-08 15:51:00,
2013-04-08 17:56:00,48.2,26.1,29.71,East,90,9.4,10.1,42,0.00,,,0.00,WUHU216HW,2013-04-08 15:56:00,
2013-04-08 18:01:00,48.2,26.1,29.71,NNE,23,2.9,10.1,42,0.00,,,0.00,WUHU216HW,2013-04-08 16:01:00,
2013-04-08 18:06:00,48.2,26.1,29.71,East,90,7.6,9.6,42,0.00,,,0.00,WUHU216HW,2013-04-08 16:06:00,
2013-04-08 18:11:00,48.2,26.1,29.70,ENE,68,7.4,9.6,42,0.00,,,0.00,WUHU216HW,2013-04-08 16:11:00,
2013-04-08 18:16:00,47.9,26.3,29.70,ESE,113,4.0,7.6,43,0.00,,,0.00,WUHU216HW,2013-04-08 16:16:00,
2013-04-08 18:21:00,47.9,26.3,29.70,NE,45,4.7,7.4,43,0.00,,,0.00,WUHU216HW,2013-04-08 16:21:00,
2013-04-08 18:26:00,47.5,26.0,29.70,ESE,113,2.9,9.6,43,0.00,,,0.00,WUHU216HW,2013-04-08 16:26:00,
2013-04-08 18:31:00,47.5,26.0,29.70,ENE,68,5.4,9.6,43,0.00,,,0.00,WUHU216HW,2013-04-08 16:31:00,
2013-04-08 18:36:00,47.2,26.2,29.70,ESE,113,1.8,5.4,44,0.00,,,0.00,WUHU216HW,2013-04-08 16:36:00,
2013-04-08 18:41:00,47.2,27.3,29.71,ESE,113,1.3,5.4,46,0.00,,,0.00,WUHU216HW,2013-04-08 16:41:00,
2013-04-08 18:46:00,47.0,26.0,29.71,East,90,2.9,4.9,44,0.00,,,0.00,WUHU216HW,2013-04-08 16:46:00,
2013-04-08 18:51:00,46.8,25.9,29.71,SE,135,2.7,4.9,44,0.00,,,0.00,WUHU216HW,2013-04-08 16:51:00,
2013-04-08 18:56:00,46.8,26.5,29.71,NE,45,0.4,4.9,45,0.00,,,0.00,WUHU216HW,2013-04-08 16:56:00,
2013-04-08 19:01:00,46.6,27.4,29.71,ESE,113,0.7,4.5,47,0.00,,,0.00,WUHU216HW,2013-04-08 17:01:00,
2013-04-08 19:06:00,46.4,27.2,29.71,ENE,68,1.1,2.5,47,0.00,,,0.00,WUHU216HW,2013-04-08 17:06:00,
2013-04-08 19:12:00,46.3,27.5,29.71,ESE,113,0.9,3.6,48,0.00,,,0.00,WUHU216HW,2013-04-08 17:12:00,
2013-04-08 19:17:00,46.1,27.9,29.72,SE,135,0.4,3.6,49,0.00,,,0.00,WUHU216HW,2013-04-08 17:17:00,
2013-04-08 19:22:00,45.7,28.2,29.72,SE,135,0.4,1.1,50,0.00,,,0.00,WUHU216HW,2013-04-08 17:22:00,
2013-04-08 19:27:00,45.7,28.2,29.72,SSE,158,0.2,1.1,50,0.00,,,0.00,WUHU216HW,2013-04-08 17:27:00,
2013-04-08 19:32:00,45.4,28.3,29.72,SSE,158,1.1,1.1,51,0.00,,,0.00,WUHU216HW,2013-04-08 17:32:00,
2013-04-08 19:37:00,45.0,28.5,29.72,SE,135,1.6,1.8,52,0.00,,,0.00,WUHU216HW,2013-04-08 17:37:00,
2013-04-08 19:42:00,44.5,27.9,29.72,SE,135,1.1,1.8,52,0.00,,,0.00,WUHU216HW,2013-04-08 17:42:00,
2013-04-08 19:47:00,44.1,28.0,29.72,SSE,158,0.7,1.6,53,0.00,,,0.00,WUHU216HW,2013-04-08 17:47:00,
2013-04-08 19:52:00,43.7,27.7,29.71,ESE,113,1.1,1.6,53,0.00,,,0.00,WUHU216HW,2013-04-08 17:52:00,
2013-04-08 19:57:00,43.2,27.2,29.71,SE,135,2.2,3.4,53,0.00,,,0.00,WUHU216HW,2013-04-08 17:57:00,
2013-04-08 20:02:00,42.8,27.3,29.71,SSE,158,0.4,3.4,54,0.00,,,0.00,WUHU216HW,2013-04-08 18:02:00,
2013-04-08 20:07:00,42.5,26.9,29.71,SE,135,1.1,2.5,54,0.00,,,0.00,WUHU216HW,2013-04-08 18:07:00,
2013-04-08 20:12:00,42.3,27.2,29.71,SSE,158,0.9,2.5,55,0.00,,,0.00,WUHU216HW,2013-04-08 18:12:00,
2013-04-08 20:17:00,42.1,27.0,29.71,SE,135,1.3,1.3,55,0.00,,,0.00,WUHU216HW,2013-04-08 18:17:00,
2013-04-08 20:22:00,41.8,27.2,29.71,SE,135,2.0,2.5,56,0.00,,,0.00,WUHU216HW,2013-04-08 18:22:00,
2013-04-08 20:27:00,41.6,27.0,29.71,SSE,158,1.1,2.5,56,0.00,,,0.00,WUHU216HW,2013-04-08 18:27:00,
2013-04-08 20:32:00,41.2,27.1,29.71,SSE,158,1.3,1.8,57,0.00,,,0.00,WUHU216HW,2013-04-08 18:32:00,
2013-04-08 20:37:00,41.0,26.9,29.71,SSE,158,0.7,1.8,57,0.00,,,0.00,WUHU216HW,2013-04-08 18:37:00,
2013-04-08 20:42:00,40.7,27.0,29.71,SE,135,1.3,2.0,58,0.00,,,0.00,WUHU216HW,2013-04-08 18:42:00,
2013-04-08 20:47:00,40.7,27.0,29.72,South,180,3.8,3.8,58,0.00,,,0.00,WUHU216HW,2013-04-08 18:47:00,
2013-04-08 20:52:00,40.5,26.8,29.71,SE,135,0.7,3.8,58,0.00,,,0.00,WUHU216HW,2013-04-08 18:52:00,
2013-04-08 20:57:00,40.3,26.6,29.71,SE,135,2.0,3.8,58,0.00,,,0.00,WUHU216HW,2013-04-08 18:57:00,
2013-04-08 21:02:00,40.3,27.1,29.71,SSE,158,2.7,2.7,59,0.00,,,0.00,WUHU216HW,2013-04-08 19:02:00,
2013-04-08 21:07:00,40.1,26.9,29.72,East,90,2.2,3.8,59,0.00,,,0.00,WUHU216HW,2013-04-08 19:07:00,
2013-04-08 21:13:00,40.1,26.9,29.71,SSE,158,0.4,3.8,59,0.00,,,0.00,WUHU216HW,2013-04-08 19:13:00,
2013-04-08 21:17:00,40.0,26.7,29.72,ESE,113,1.8,1.8,59,0.00,,,0.00,WUHU216HW,2013-04-08 19:17:00,
2013-04-08 21:23:00,39.6,26.8,29.72,SSE,158,0.4,2.5,60,0.00,,,0.00,WUHU216HW,2013-04-08 19:23:00,
2013-04-08 21:28:00,39.2,26.8,29.72,SSE,158,0.9,2.5,61,0.00,,,0.00,WUHU216HW,2013-04-08 19:28:00,
2013-04-08 21:33:00,38.9,26.6,29.72,SE,135,1.3,2.0,61,0.00,,,0.00,WUHU216HW,2013-04-08 19:33:00,
2013-04-08 21:38:00,38.7,26.7,29.72,SSE,158,1.6,1.8,62,0.00,,,0.00,WUHU216HW,2013-04-08 19:38:00,
2013-04-08 21:43:00,38.5,26.6,29.72,SSE,158,1.3,1.8,62,0.00,,,0.00,WUHU216HW,2013-04-08 19:43:00,
2013-04-08 21:48:00,38.2,26.7,29.72,SE,135,2.2,2.5,63,0.00,,,0.00,WUHU216HW,2013-04-08 19:48:00,
2013-04-08 21:53:00,38.0,26.5,29.72,SE,135,2.2,2.5,63,0.00,,,0.00,WUHU216HW,2013-04-08 19:53:00,
2013-04-08 21:58:00,37.8,26.3,29.72,SSE,158,1.1,2.2,63,0.00,,,0.00,WUHU216HW,2013-04-08 19:58:00,
2013-04-08 22:03:00,37.6,26.1,29.71,SSE,158,1.3,2.2,63,0.00,,,0.00,WUHU216HW,2013-04-08 20:03:00,
2013-04-08 22:08:00,37.4,26.0,29.71,SE,135,1.1,1.8,63,0.00,,,0.00,WUHU216HW,2013-04-08 20:08:00,
2013-04-08 22:13:00,37.4,26.0,29.71,SE,135,0.4,1.8,63,0.00,,,0.00,WUHU216HW,2013-04-08 20:13:00,
2013-04-08 22:18:00,37.3,26.2,29.71,SE,135,1.3,1.8,64,0.00,,,0.00,WUHU216HW,2013-04-08 20:18:00,
2013-04-08 22:23:00,37.3,26.2,29.71,SE,135,1.1,1.6,64,0.00,,,0.00,WUHU216HW,2013-04-08 20:23:00,
2013-04-08 22:28:00,37.1,26.4,29.71,SSE,158,0.9,1.6,65,0.00,,,0.00,WUHU216HW,2013-04-08 20:28:00,
2013-04-08 22:33:00,36.9,26.2,29.71,SE,135,1.1,1.8,65,0.00,,,0.00,WUHU216HW,2013-04-08 20:33:00,
2013-04-08 22:38:00,36.9,26.6,29.71,SE,135,0.9,1.8,66,0.00,,,0.00,WUHU216HW,2013-04-08 20:38:00,
2013-04-08 22:43:00,36.9,26.6,29.71,SE,135,0.9,1.6,66,0.00,,,0.00,WUHU216HW,2013-04-08 20:43:00,
2013-04-08 22:48:00,37.1,26.7,29.71,SSE,158,1.3,1.6,66,0.00,,,0.00,WUHU216HW,2013-04-08 20:48:00,
2013-04-08 22:53:00,37.1,27.2,29.71,SE,135,1.1,1.8,67,0.00,,,0.00,WUHU216HW,2013-04-08 20:53:00,
2013-04-08 22:58:00,37.1,27.2,29.71,SSE,158,1.1,1.8,67,0.00,,,0.00,WUHU216HW,2013-04-08 20:58:00,
2013-04-08 23:03:00,36.9,27.0,29.71,SE,135,1.3,1.6,67,0.00,,,0.00,WUHU216HW,2013-04-08 21:03:00,
2013-04-08 23:08:00,36.9,27.0,29.71,SSE,158,0.7,1.6,67,0.00,,,0.00,WUHU216HW,2013-04-08 21:08:00,
2013-04-08 23:13:00,36.7,26.8,29.71,SE,135,0.9,1.6,67,0.00,,,0.00,WUHU216HW,2013-04-08 21:13:00,
2013-04-08 23:18:00,36.5,26.7,29.71,SE,135,1.3,1.8,67,0.00,,,0.00,WUHU216HW,2013-04-08 21:18:00,
2013-04-08 23:23:00,36.5,27.0,29.71,SE,135,0.9,1.8,68,0.00,,,0.00,WUHU216HW,2013-04-08 21:23:00,
2013-04-08 23:28:00,36.4,26.8,29.71,SE,135,1.1,1.6,68,0.00,,,0.00,WUHU216HW,2013-04-08 21:28:00,
2013-04-08 23:33:00,36.2,26.7,29.70,SE,135,0.7,1.8,68,0.00,,,0.00,WUHU216HW,2013-04-08 21:33:00,
2013-04-08 23:38:00,36.0,26.8,29.70,SE,135,1.1,2.0,69,0.00,,,0.00,WUHU216HW,2013-04-08 21:38:00,
2013-04-08 23:44:00,36.0,27.2,29.70,ESE,113,1.8,3.6,70,0.00,,,0.00,WUHU216HW,2013-04-08 21:44:00,
2013-04-08 23:49:00,36.2,27.4,29.70,SE,135,4.0,4.0,70,0.00,,,0.00,WUHU216HW,2013-04-08 21:49:00,
2013-04-08 23:54:00,36.4,27.9,29.70,SE,135,1.3,4.0,71,0.00,,,0.00,WUHU216HW,2013-04-08 21:54:00,
2013-04-08 23:59:00,36.7,27.9,29.70,ESE,113,2.5,4.7,70,0.00,,,0.00,WUHU216HW,2013-04-08 21:59:00,